Peachtree City, GA

9:45 PM EST on November 19, 2019 (GMT -0500)
Peachtree City-Falcon

Weather History for KFFC - October, 2019

Change the Weather History Date:

Monday, October 21, 2019

  Actual Average Record
Temperature  
Mean Temperature 66 °F 60 °F  
Max Temperature 78 °F 73 °F 82 °F (2003)
Min Temperature 54 °F 47 °F 32 °F (2006)
Degree Days  
Heating Degree Days 0 6  
Month to date heating degree days 21 79  
Since 1 July heating degree days 21 92  
Cooling Degree Days 1 1  
Month to date cooling degree days 156 35  
Year to date cooling degree days 2464 1643  
Growing Degree Days 16 (Base 50)    
Moisture  
Dew Point 59 °F    
Average Humidity 87    
Maximum Humidity 100    
Minimum Humidity 58    
Precipitation  
Precipitation 0.01 in 0.10 in 0.02 in (2002)
Month to date precipitation 1.97 2.52  
Year to date precipitation 36.34 41.09  
Snow  
Snow 0.00 in - - ()
Month to date snowfall 0.0  
Since 1 July snowfall 0.0  
Since 1 September snowfall 0.0  
Snow Depth 0.00 in    
Sea Level Pressure  
Sea Level Pressure 29.97 in    
Wind  
Wind Speed 1 mph ()    
Max Wind Speed 15 mph    
Max Gust Speed 23 mph    
Visibility 8.0 miles    
Events Fog , Rain    
T = Trace of Precipitation, MM = Missing Value Source: Averaged Metar Reports

Daily Weather History Graph

Daily Weather History Graph

Search for Another Location

Airport or City:

Astronomy

Oct. 21, 2019 Rise Set
Actual Time 7:47 AM EDT 6:57 PM EDT
Civil Twilight 7:22 AM EDT 7:23 PM EDT
Nautical Twilight 6:53 AM EDT 7:52 PM EDT
Astronomical Twilight 6:24 AM EDT 8:20 PM EDT
Moon 12:18 AM EDT (10/21) 2:54 PM EDT (10/21)
Length of Visible Light 12h 00m
Length of Day
11h 10m
Waning Gibbous, 48% of the Moon is Illuminated
Oct 21
Waning Gibbous
Oct 27
New
Nov 4
First Quarter
Nov 12
Full
Nov 19
Last Quarter

Hourly Weather History & Observations

Time (EDT) Temp. Dew Point Humidity Pressure Visibility Wind Dir Wind Speed Gust Speed Precip Events Conditions
12:04 AM 59.0 °F 57.0 °F 93% 30.00 in 10.0 mi Calm Calm - N/A   Mostly Cloudy
12:53 AM 57.9 °F 55.9 °F 93% 29.99 in 10.0 mi Calm Calm - N/A   Clear
1:53 AM 57.0 °F 55.9 °F 96% 29.99 in 10.0 mi Calm Calm - N/A   Clear
2:53 AM 57.0 °F 55.0 °F 93% 29.97 in 10.0 mi Calm Calm - N/A   Clear
3:33 AM 55.9 °F 54.0 °F 93% 29.97 in 10.0 mi Calm Calm - N/A   Scattered Clouds
3:53 AM 55.9 °F 54.0 °F 93% 29.96 in 10.0 mi Calm Calm - N/A   Mostly Cloudy
4:02 AM 55.9 °F 54.0 °F 93% 29.97 in 10.0 mi Calm Calm - N/A   Partly Cloudy
4:43 AM 55.9 °F 54.0 °F 93% 29.96 in 10.0 mi Calm Calm - N/A   Mostly Cloudy
4:53 AM 55.9 °F 54.0 °F 93% 29.96 in 10.0 mi Calm Calm - N/A   Mostly Cloudy
5:10 AM 55.9 °F 54.0 °F 93% 29.97 in 1.8 mi Calm Calm - N/A   Overcast
5:20 AM 55.9 °F 54.0 °F 93% 29.97 in 0.5 mi Calm Calm - N/A Fog Fog
5:53 AM 55.9 °F 55.0 °F 97% 29.96 in 1.0 mi Calm Calm - N/A   Mist
6:03 AM 55.9 °F 55.0 °F 97% 29.97 in 0.5 mi Calm Calm - N/A Fog Fog
6:53 AM 55.9 °F 54.0 °F 93% 29.98 in 0.5 mi Calm Calm - N/A Fog Fog
7:10 AM 55.0 °F 54.0 °F 96% 29.99 in 1.0 mi Calm Calm - N/A   Mist
7:32 AM 55.0 °F 54.0 °F 96% 29.99 in 3.0 mi Calm Calm - N/A   Scattered Clouds
7:53 AM 55.0 °F 54.0 °F 96% 29.99 in 8.0 mi Calm Calm - N/A   Clear
8:53 AM 59.0 °F 57.9 °F 96% 30.01 in 8.0 mi Calm Calm - N/A   Clear
9:53 AM 64.0 °F 62.1 °F 93% 30.01 in 10.0 mi Calm Calm - N/A   Clear
10:19 AM 66.0 °F 63.0 °F 90% 30.02 in 10.0 mi SSE 3.5 mph - N/A   Partly Cloudy
10:53 AM 69.1 °F 64.0 °F 84% 30.02 in 10.0 mi ESE 4.6 mph - N/A   Clear
11:53 AM 73.0 °F 64.9 °F 76% 30.01 in 10.0 mi SE 8.1 mph - N/A   Partly Cloudy
12:53 PM 75.0 °F 64.0 °F 69% 29.99 in 10.0 mi SE 12.7 mph 19.6 mph N/A   Partly Cloudy
1:53 PM 77.0 °F 63.0 °F 62% 29.97 in 10.0 mi SSE 9.2 mph - N/A   Partly Cloudy
2:53 PM 78.1 °F 63.0 °F 60% 29.97 in 10.0 mi Variable 5.8 mph - N/A   Partly Cloudy
3:53 PM 77.0 °F 64.0 °F 64% 29.96 in 10.0 mi SSE 3.5 mph - N/A   Clear
4:53 PM 77.0 °F 64.0 °F 64% 29.96 in 10.0 mi SSE 5.8 mph - N/A   Clear
5:53 PM 75.0 °F 64.9 °F 71% 29.95 in 10.0 mi SSE 3.5 mph - N/A   Partly Cloudy
6:53 PM 72.0 °F 64.9 °F 78% 29.94 in 10.0 mi Calm Calm - N/A   Clear
7:53 PM 70.0 °F 66.9 °F 90% 29.97 in 10.0 mi Calm Calm - N/A   Overcast
8:53 PM 69.1 °F 66.9 °F 93% 29.97 in 10.0 mi Calm Calm - N/A   Mostly Cloudy
9:53 PM 70.0 °F 66.0 °F 87% 29.95 in 10.0 mi ESE 6.9 mph - 0.00 in Rain Light Rain
10:53 PM 70.0 °F 64.9 °F 84% 29.93 in 10.0 mi NNW 3.5 mph - 0.01 in Rain Light Rain
11:53 PM 66.9 °F 66.0 °F 97% 29.92 in 9.0 mi Calm Calm - 0.00 in   Clear